Location: Gorze? G�rny
(49.8500°N, 19.5000°E)
Time: 11:46:30
(UTC+00:00)

Cosmos 1400 Rocket - Pass Details

Date: 13 May 2021
Orbit: 520 x 568 km, 81.2° (Epoch: 22 June)

Event Time Altitude Azimuth Distance (km) Brightness Sun altitude
Rises 22:58:39 0° 351° (N) 2,773 7.8 -21.4°
Reaches altitude 10° 23:00:54 10° 357° (N) 1,866 6.7 -21.3°
Maximum altitude 23:04:56 51° 74° (ENE) 706 3.4 -21.3°
Enters shadow 23:05:50 42° 117° (ESE) 803 3.4 -21.3°
